Weather History for Sisseton, SD

Change the Weather History Date:

Thursday, March 28, 2013

  Actual Average Record
Temperature  
Mean Temperature 26 °F 36 °F  
Max Temperature 35 °F 46 °F 82 °F (1946)
Min Temperature 17 °F 25 °F -4 °F (1964)
Degree Days  
Heating Degree Days 39 30  
Month to date heating degree days 1341 998  
Since 1 July heating degree days 7726 7257  
Cooling Degree Days 0 0  
Month to date cooling degree days 0 0  
Year to date cooling degree days 0 0  
Moisture  
Dew Point 25 °F    
Average Humidity 91    
Maximum Humidity 100    
Minimum Humidity 82    
Precipitation  
Precipitation 0.00 in 0.06 in 0.66 in (1940)
Month to date precipitation 0.93 0.95  
Year to date precipitation 3.31 1.81  
Snow  
Snow 0.00 in - - ()
Month to date snowfall 5.4  
Since 1 July snowfall 42.1  
Snow Depth 12.00 in    
Sea Level Pressure  
Sea Level Pressure 30.29 in    
Wind  
Wind Speed 6 mph (South)    
Max Wind Speed 12 mph    
Max Gust Speed 14 mph    
T = Trace of Precipitation, MM = Missing Value Source: NWS Daily Summary

Daily Weather History Graph

Daily Weather History Graph

Search for Another Location

Airport:

Trip Planner

Search our weather history database for the weather conditions in past years. The results will help you decide how hot, cold, wet, or windy it might be!

Date:

Astronomy

Mar. 28, 2013 Rise Set
Actual Time 7:15 AM CDT 7:51 PM CDT
Civil Twilight 6:45 AM CDT 8:21 PM CDT
Nautical Twilight 6:09 AM CDT 8:56 PM CDT
Astronomical Twilight 5:33 AM CDT 9:33 PM CDT
Moon 9:52 PM CDT (3/28) 7:38 AM CDT (3/28)
Length of Visible Light 13h 36m
Length of Day
12h 36m
Full, 98% of the Moon is Illuminated
Mar 28
Full
Apr 2
Last Quarter
Apr 10
New
Apr 18
First Quarter
Apr 25
Full

Hourly Weather History & Observations

Time (CDT) Temp. Windchill Dew Point Humidity Pressure Visibility Wind Dir Wind Speed Gust Speed Precip Events Conditions
12:56 AM 19.0 °F 11.1 °F 18.0 °F 96% 30.34 in - South 5.8 mph - N/A   Unknown
1:56 AM 21.0 °F 12.4 °F 19.9 °F 96% 30.33 in - South 6.9 mph - N/A   Unknown
2:56 AM 24.1 °F 18.2 °F 23.0 °F 96% 30.32 in - SSE 4.6 mph - N/A   Unknown
3:56 AM 24.1 °F 15.2 °F 23.0 °F 96% 30.30 in - SSE 8.1 mph - N/A   Unknown
4:56 AM 21.9 °F 14.5 °F 21.0 °F 96% 30.30 in - SSE 5.8 mph - N/A   Unknown
5:56 AM 21.0 °F 12.4 °F 19.9 °F 96% 30.30 in - South 6.9 mph - N/A   Unknown
6:56 AM 19.9 °F 10.1 °F 19.0 °F 96% 30.29 in - SSW 8.1 mph - N/A   Unknown
7:56 AM 21.0 °F 12.4 °F 21.0 °F 100% 30.30 in - SSW 6.9 mph - N/A   Unknown
8:56 AM 21.9 °F 14.5 °F 21.9 °F 100% 30.30 in - South 5.8 mph - N/A   Unknown
9:56 AM 23.0 °F 17.0 °F 21.9 °F 96% 30.31 in - SE 4.6 mph - N/A   Unknown
10:56 AM 28.9 °F 20.4 °F 26.1 °F 89% 30.30 in - South 9.2 mph - N/A   Unknown
11:56 AM 30.0 °F 21.7 °F 28.0 °F 92% 30.30 in - South 9.2 mph - N/A   Unknown
12:56 PM 32.0 °F 26.4 °F 28.9 °F 88% 30.30 in - South 5.8 mph - N/A   Unknown
1:56 PM 34.0 °F 25.5 °F 30.0 °F 85% 30.29 in - South 11.5 mph - N/A   Unknown
2:56 PM 34.0 °F 26.0 °F 30.0 °F 85% 30.28 in - South 10.4 mph - N/A   Unknown
3:56 PM 35.1 °F 27.9 °F 30.9 °F 85% 30.26 in - South 9.2 mph - N/A   Unknown
4:56 PM 35.1 °F 28.6 °F 30.9 °F 85% 30.26 in - SSE 8.1 mph - N/A   Unknown
5:56 PM 35.1 °F 28.6 °F 30.9 °F 85% 30.26 in - South 8.1 mph - N/A   Unknown
6:56 PM 33.1 °F 28.7 °F 30.0 °F 89% 30.27 in - South 4.6 mph - N/A   Unknown
7:56 PM 32.0 °F 27.5 °F 30.0 °F 92% 30.27 in - SSE 4.6 mph - N/A   Unknown
8:56 PM 30.9 °F 27.5 °F 28.0 °F 89% 30.27 in - SSE 3.5 mph - N/A   Unknown
9:56 PM 28.0 °F 24.2 °F 27.0 °F 96% 30.29 in - South 3.5 mph - N/A   Unknown
10:56 PM 26.1 °F - 25.0 °F 96% 30.27 in - Calm Calm - N/A   Unknown
11:56 PM 25.0 °F - 21.9 °F 88% 30.27 in - Calm Calm - N/A   Unknown